Stations météo

Publicité
Grenoble/St.Geoirs, France (7486): Température de l'air & dewpoint: 14.08.2019 13:00:00 - 20.08.2019 13:00:00 (CEST)Grenoble/St.Geoirs, France (7486): Température de l'air 5cm: 14.08.2019 13:00:00 - 20.08.2019 13:00:00 (CEST)Grenoble/St.Geoirs, France (7486): Température de l'air -20cm & Température de l'air -100cm: 14.08.2019 13:00:00 - 20.08.2019 13:00:00 (CEST)Grenoble/St.Geoirs, France (7486): Vitesse du vent & gusts: 14.08.2019 13:00:00 - 20.08.2019 13:00:00 (CEST)Grenoble/St.Geoirs, France (7486): Direction du vent: 14.08.2019 13:00:00 - 20.08.2019 13:00:00 (CEST)Grenoble/St.Geoirs, France (7486): reduced air pressure: 14.08.2019 13:00:00 - 20.08.2019 13:00:00 (CEST)Grenoble/St.Geoirs, France (7486): visibility: 14.08.2019 13:00:00 - 20.08.2019 13:00:00 (CEST)Grenoble/St.Geoirs, France (7486): Ensoleillement: 14.08.2019 13:00:00 - 20.08.2019 13:00:00 (CEST)Grenoble/St.Geoirs, France (7486): Quantités de précipitations: 14.08.2019 13:00:00 - 20.08.2019 13:00:00 (CEST)
Date & Time tt [°C] td [°C] tt 5cm [°C] tt -20cm [°C] tt -100cm [°C] ff [km/h] ff [knt] fx [km/h] fx [knt] dd ppp [hPa] vv [km] sd [min] rr [mm]
20.08.2019 13:00:00 15,3 14,0 15,1 20,5 19,5 5 3 16 9 WNW 1022,7 21 0 0,4
20.08.2019 12:00:00 15,1 13,8 14,7 20,6 19,5 5 3 16 9 W 1022,7 3,5 0 2,2
20.08.2019 11:00:00 15,0 13,4 14,8 20,7 19,5 8 4 15 8 W 1022,1 17 0 0,8
20.08.2019 10:00:00 14,7 13,6 14,6 20,8 19,5 3 1 9 5 W 1021,8 13 0 2,0
20.08.2019 09:00:00 14,6 13,6 14,4 20,9 19,5 3 1 11 6 S 1021,8 2,9 0 2,6
20.08.2019 08:00:00 14,6 13,6 14,2 21,0 19,5 7 4 13 7 SSW 1021,7 2,8 0 5,3
20.08.2019 07:00:00 14,6 13,3 13,9 21,1 19,5 8 4 14 8 W 1021,3 1,5 0 6,8
20.08.2019 06:00:00 15,2 13,2 14,6 21,3 19,5 7 4 15 8 NNW 1020,0 16 0 0,2
20.08.2019 05:00:00 15,7 14,4 15,4 21,3 19,5 3 2 10 5 W 1020,1 15 0 0,0
20.08.2019 04:00:00 15,9 14,6 15,4 21,4 19,5 6 3 11 6 WNW 1020,2 20 0 0,0
20.08.2019 03:00:00 15,9 14,4 15,1 21,5 19,5 8 4 13 7 E 1020,3 29 0 0,0
20.08.2019 02:00:00 15,9 13,9 15,1 21,6 19,5 4 2 13 7 W 1021,5 7 0 1,4
20.08.2019 01:00:00 16,4 14,4 15,4 21,6 19,5 10 5 13 7 WNW 1021,1 40 0 0,2
20.08.2019 00:00:00 16,6 13,5 15,5 21,7 19,5 6 4 11 6 WNW 1021,6 47 0 0,0
19.08.2019 23:00:00 17,0 13,5 16,8 21,8 19,5 7 4 10 5 NNW 1021,0 57 0 0,0
19.08.2019 22:00:00 17,2 13,5 17,0 21,8 19,5 4 2 9 5 NNW 1021,1 59 0 0,0
19.08.2019 21:00:00 17,2 13,1 16,9 21,8 19,5 4 2 15 8 N 1020,5 59 0 0,0
19.08.2019 20:00:00 17,3 13,2 17,3 21,8 19,5 8 4 16 9 N 1020,4 43 0 0,0
19.08.2019 19:00:00 17,3 13,4 17,6 21,7 19,5 9 5 18 10 NNW 1020,2 51 0 0,0
19.08.2019 18:00:00 17,8 13,5 18,1 21,7 19,5 10 5 30 16 NNW 1019,8 42 0 0,0
19.08.2019 17:00:00 18,3 13,8 20,7 21,6 19,5 15 8 32 18 N 1019,5 38 0 0,0
19.08.2019 16:00:00 19,4 14,2 22,3 21,5 19,5 21 12 32 18 NNW 1018,8 30 34 0,0
19.08.2019 15:00:00 19,6 15,5 21,8 21,4 19,5 19 10 37 20 N 1018,7 32 4 0,0
19.08.2019 14:00:00 20,4 16,2 23,2 21,4 19,5 21 12 29 15 NNW 1018,1 22 18 0,0
19.08.2019 13:00:00 21,4 16,8 25,8 21,4 19,4 14 8 22 12 NNW 1017,7 30 24 0,2
19.08.2019 12:00:00 20,7 15,5 18,9 21,5 19,5 7 4 15 8 WNW 1018,0 31 5 0,0
19.08.2019 11:00:00 18,8 15,5 17,3 21,5 19,4 3 2 12 6 S 1018,2 8 1 1,8
19.08.2019 10:00:00 19,7 16,2 19,7 21,6 19,5 4 2 11 6 NNE 1017,3 42 2 0,0
19.08.2019 09:00:00 18,6 16,6 17,8 21,7 19,5 3 1 21 11 N 1017,0 32 6 0,0
19.08.2019 08:00:00 17,8 16,3 16,5 21,8 19,5 3 1 16 9 SSW 1017,8 23 15 0,0
19.08.2019 07:00:00 17,4 15,9 16,3 21,9 19,4 18 10 27 15 ENE 1016,1 19 0 1,4
19.08.2019 06:00:00 17,9 16,2 16,6 21,9 19,4 6 4 16 9 SSE 1017,5 13 0 1,8
19.08.2019 05:00:00 18,3 13,8 17,3 22,1 19,4 9 5 18 10 E 1016,5 40 0 0,0
19.08.2019 04:00:00 19,6 14,6 17,9 22,1 19,4 8 5 23 13 E 1016,6 42 0 0,0
19.08.2019 03:00:00 19,7 14,9 18,7 22,2 19,4 6 3 22 12 WNW 1016,9 38 0 0,0
19.08.2019 02:00:00 20,3 13,3 17,5 22,2 19,4 16 9 23 12 SW 1015,3 43 0 0,0
19.08.2019 01:00:00 21,7 13,8 20,0 22,3 19,5 10 6 38 20 SW 1014,8 50 0 0,0
19.08.2019 00:00:00 23,5 14,5 22,5 22,3 19,4 20 11 38 21 SW 1014,9 52 0 0,0
18.08.2019 23:00:00 23,8 14,5 22,9 22,3 19,4 16 9 41 22 WSW 1014,1 56 0 0,0
18.08.2019 22:00:00 25,0 13,9 24,1 22,2 19,4 16 9 42 23 WNW 1012,9 56 0 0,0
18.08.2019 21:00:00 26,0 13,1 25,3 22,1 19,4 22 12 49 26 SSW 1010,7 56 0 0,0
18.08.2019 20:00:00 26,9 14,0 26,3 22,0 19,4 24 13 54 29 SSW 1009,7 54 7 0,0
18.08.2019 19:00:00 28,5 14,7 28,9 21,8 19,4 31 17 57 31 SSW 1009,8 49 54 0,0
18.08.2019 18:00:00 29,3 15,1 31,7 21,6 19,4 33 18 57 31 SSW 1010,1 12 60 0,0
18.08.2019 17:00:00 30,0 15,3 32,8 21,4 19,4 32 18 62 33 SSW 1009,9 11 60 0,0
18.08.2019 16:00:00 30,3 15,6 33,2 21,2 19,4 29 16 61 33 SSW 1010,1 14 60 0,0
18.08.2019 15:00:00 29,9 16,3 29,2 21,0 19,4 18 10 56 30 SW 1011,2 15 43 0,0
18.08.2019 14:00:00 28,4 15,0 31,0 20,9 19,4 35 19 61 33 SW 1011,5 17 50 0,0
18.08.2019 13:00:00 28,3 15,2 31,4 20,9 19,4 28 15 43 23 SW 1011,2 17 60 0,0
18.08.2019 12:00:00 27,5 14,8 29,8 20,9 19,4 19 10 41 22 SW 1011,4 19 60 0,0
18.08.2019 11:00:00 25,7 15,1 27,1 21,0 19,4 20 11 36 20 SW 1011,7 19 60 0,0
18.08.2019 10:00:00 23,7 16,0 26,6 21,1 19,4 24 13 37 20 SSW 1012,0 20 60 0,0
18.08.2019 09:00:00 21,9 17,1 20,9 21,2 19,4 4 2 9 5 NNE 1012,3 20 60 0,0
18.08.2019 08:00:00 17,9 16,1 14,1 21,3 19,4 3 2 9 5 E 1012,9 18 44 0,0
18.08.2019 07:00:00 14,6 13,1 12,9 21,4 19,4 8 4 13 7 E 1013,6 13 0 0,0
18.08.2019 06:00:00 14,8 12,7 13,0 21,5 19,4 10 5 14 8 E 1013,7 18 0 0,0
18.08.2019 05:00:00 15,4 11,2 13,3 21,6 19,4 11 6 15 8 E 1014,2 30 0 0,0
18.08.2019 04:00:00 19,3 16,0 16,4 21,8 19,5 6 3 20 11 W 1013,8 19 0 0,0
18.08.2019 03:00:00 19,7 15,1 16,5 21,8 19,4 8 5 19 10 WNW 1013,9 28 0 0,0
18.08.2019 02:00:00 20,8 11,1 17,3 21,8 19,4 6 4 22 12 WSW 1013,9 49 0 0,0
18.08.2019 01:00:00 22,7 7,6 19,7 21,9 19,4 13 7 29 16 WNW 1013,9 29 0 0,0
18.08.2019 00:00:00 22,8 9,2 20,0 21,9 19,4 16 8 39 21 WNW 1013,9 48 0 0,0
17.08.2019 23:00:00 25,6 9,4 24,6 21,9 19,5 26 14 50 27 SSW 1012,8 57 0 0,0
17.08.2019 22:00:00 26,2 11,9 25,2 21,8 19,4 27 14 50 27 SSW 1012,4 50 0 0,0
17.08.2019 21:00:00 26,9 11,0 25,6 21,7 19,4 19 10 33 18 SSW 1011,8 55 19 0,0
17.08.2019 20:00:00 28,8 10,9 28,4 21,5 19,4 18 10 35 19 S 1011,4 28 44 0,0
17.08.2019 19:00:00 29,4 10,0 29,2 21,3 19,4 20 11 41 22 S 1011,3 52 13 0,0
17.08.2019 18:00:00 31,1 9,9 33,2 21,1 19,4 21 11 37 20 SSW 1011,6 22 60 0,0
17.08.2019 17:00:00 31,9 11,1 35,5 20,9 19,4 23 12 32 18 SSW 1011,5 22 60 0,0
17.08.2019 16:00:00 31,5 11,3 35,7 20,7 19,5 11 6 26 14 S 1012,0 23 60 0,0
17.08.2019 15:00:00 30,9 10,8 32,0 20,6 19,5 15 8 29 16 S 1012,6 15 40 0,0
17.08.2019 14:00:00 28,9 11,9 30,2 20,4 19,5 14 8 34 18 S 1013,8 24 44 0,0
17.08.2019 13:00:00 27,3 13,6 28,7 20,4 19,5 6 3 22 12 S 1014,2 52 22 0,0
17.08.2019 12:00:00 25,5 12,7 28,9 20,3 19,4 5 3 18 10 SE 1014,9 52 42 0,0
17.08.2019 11:00:00 24,4 12,0 26,7 20,4 19,5 3 2 10 5 S 1015,6 20 60 0,0
17.08.2019 10:00:00 21,6 12,2 22,2 20,5 19,5 5 3 17 9 ENE 1015,9 38 60 0,0
17.08.2019 09:00:00 18,5 12,5 16,1 20,6 19,5 11 6 16 9 ENE 1016,3 60 45 0,0
17.08.2019 08:00:00 15,6 11,6 13,5 20,7 19,5 7 4 17 9 E 1016,4 46 29 0,0
17.08.2019 07:00:00 13,7 10,9 12,5 20,9 19,5 13 7 23 12 E 1016,4 45 0 0,0
17.08.2019 06:00:00 14,2 11,2 12,8 21,0 19,5 16 9 25 14 E 1016,2 51 0 0,0
17.08.2019 05:00:00 14,2 11,4 12,7 21,1 19,5 18 10 21 11 E 1016,5 51 0 0,0
17.08.2019 04:00:00 14,2 11,0 12,8 21,3 19,5 13 7 23 12 E 1016,7 44 0 0,0
17.08.2019 03:00:00 14,7 11,7 12,3 21,3 19,5 20 11 23 13 E 1016,1 38 0 0,0
17.08.2019 02:00:00 14,3 11,3 12,6 21,4 19,5 14 7 19 10 E 1016,7 37 0 0,0
17.08.2019 01:00:00 14,7 11,7 11,7 21,5 19,5 11 6 17 9 E 1017,0 38 0 0,0
17.08.2019 00:00:00 14,4 11,4 12,9 21,6 19,5 14 8 18 10 E 1016,9 39 0 0,0
16.08.2019 23:00:00 15,3 12,1 12,8 21,6 19,5 11 6 14 7 E 1016,9 39 0 0,0
16.08.2019 22:00:00 16,0 11,8 12,9 21,5 19,5 8 5 12 7 E 1016,8 46 0 0,0
16.08.2019 21:00:00 19,6 12,1 14,9 21,4 19,5 8 4 13 7 ESE 1015,8 43 21 0,0
16.08.2019 20:00:00 23,6 9,9 21,9 21,3 19,5 3 2 11 6 E 1015,1 56 52 0,0
16.08.2019 19:00:00 24,7 10,6 26,6 21,0 19,5 8 5 16 8 ENE 1014,9 51 53 0,0
16.08.2019 18:00:00 24,8 9,5 25,7 20,8 19,5 5 3 14 8 N 1015,5 59 38 0,0
16.08.2019 17:00:00 24,9 11,1 31,0 20,6 19,5 7 4 22 12 NNW 1016,0 43 60 0,0
16.08.2019 16:00:00 24,6 11,9 28,9 20,4 19,5 14 8 25 14 NW 1016,2 54 53 0,0
16.08.2019 15:00:00 24,2 10,8 27,6 20,2 19,6 9 5 23 12 NNW 1016,7 20 51 0,0
16.08.2019 14:00:00 23,3 10,4 28,4 20,1 19,5 13 7 28 15 NNW 1017,0 37 60 0,0
16.08.2019 13:00:00 22,6 10,4 26,7 20,0 19,5 10 5 24 13 NNW 1017,3 28 60 0,0
16.08.2019 12:00:00 21,9 10,1 25,1 20,0 19,5 14 7 25 13 NNE 1018,2 17 60 0,0
16.08.2019 11:00:00 20,7 10,5 24,0 20,1 19,6 15 8 27 15 NNE 1018,7 44 58 0,0
16.08.2019 10:00:00 18,8 10,9 21,9 20,2 19,6 8 5 16 9 NNW 1019,2 49 57 0,0
16.08.2019 09:00:00 17,6 11,4 18,2 20,4 19,5 2 1 9 5 W 1020,0 51 60 0,0
16.08.2019 08:00:00 13,9 10,7 10,8 20,6 19,6 4 2 14 7 E 1020,5 30 57 0,0
16.08.2019 07:00:00 11,7 9,1 8,7 20,7 19,6 5 3 11 6 SE 1020,5 35 0 0,0
16.08.2019 06:00:00 11,3 8,5 8,2 20,8 19,6 4 2 11 6 WNW 1020,4 39 0 0,0
16.08.2019 05:00:00 12,9 9,0 9,1 21,0 19,6 5 3 14 8 ENE 1020,5 50 0 0,0
16.08.2019 04:00:00 13,0 8,5 9,4 21,1 19,6 6 3 15 8 ESE 1021,0 53 0 0,0
16.08.2019 03:00:00 13,0 9,3 10,0 21,2 19,6 5 3 14 7 S 1021,7 50 0 0,0
16.08.2019 02:00:00 13,3 9,2 9,9 21,4 19,6 4 2 14 8 SE 1021,2 57 0 0,0
16.08.2019 01:00:00 13,0 9,6 9,3 21,4 19,6 6 4 12 6 SE 1021,6 48 0 0,0
16.08.2019 00:00:00 14,4 9,8 10,5 21,5 19,6 6 3 12 6 SE 1021,5 54 0 0,0
15.08.2019 23:00:00 16,3 9,7 14,1 21,5 19,6 10 5 14 8 NNE 1020,8 60 0 0,0
15.08.2019 22:00:00 16,6 10,2 13,4 21,5 19,6 8 5 19 11 ENE 1020,6 57 0 0,0
15.08.2019 21:00:00 19,9 9,7 18,4 21,4 19,6 14 7 26 14 N 1019,5 59 23 0,0
15.08.2019 20:00:00 21,8 9,7 22,3 21,2 19,6 17 9 34 18 N 1018,6 29 60 0,0
15.08.2019 19:00:00 23,2 10,3 25,8 21,1 19,6 19 10 35 19 NNW 1017,9 45 60 0,0
15.08.2019 18:00:00 23,8 12,4 25,2 20,9 19,6 20 11 33 18 NNW 1017,4 38 40 0,0
15.08.2019 17:00:00 24,3 13,5 24,4 20,7 19,7 27 14 37 20 NNW 1016,9 39 36 0,0
15.08.2019 16:00:00 24,8 13,0 28,2 20,5 19,6 12 6 34 18 N 1016,9 45 51 0,0
15.08.2019 15:00:00 24,1 13,6 27,4 20,4 19,7 16 9 29 16 WNW 1017,1 28 25 0,0
15.08.2019 14:00:00 23,5 12,8 27,5 20,3 19,7 16 9 31 17 WNW 1017,2 43 14 0,0
15.08.2019 13:00:00 23,2 10,9 26,9 20,2 19,7 15 8 27 14 WSW 1017,3 51 34 0,0
15.08.2019 12:00:00 22,7 11,4 26,8 20,2 19,7 16 8 27 15 W 1017,4 60 41 0,0
15.08.2019 11:00:00 22,5 10,6 22,5 20,2 19,7 5 3 16 9 W 1017,0 48 49 0,0
15.08.2019 10:00:00 19,6 11,9 19,1 20,3 19,7 13 7 19 10 E 1017,3 25 24 0,0
15.08.2019 09:00:00 17,2 11,7 16,3 20,4 19,7 14 7 19 11 E 1017,8 37 16 0,0
15.08.2019 08:00:00 15,3 11,1 13,3 20,5 19,7 13 7 21 11 E 1017,9 32 24 0,0
15.08.2019 07:00:00 13,8 10,6 13,1 20,7 19,7 13 7 22 12 E 1017,9 35 0 0,0
15.08.2019 06:00:00 14,7 11,5 13,1 20,8 19,7 12 6 14 8 E 1017,8 41 0 0,0
15.08.2019 05:00:00 14,3 10,9 13,3 20,9 19,7 4 2 11 6 E 1017,8 44 0 0,0
15.08.2019 04:00:00 13,7 11,0 10,7 21,0 19,7 9 5 14 8 ESE 1018,0 39 0 0,0
15.08.2019 03:00:00 12,1 10,0 10,3 21,2 19,7 9 5 13 7 E 1018,3 39 0 0,0
15.08.2019 02:00:00 12,8 10,2 9,9 21,3 19,7 9 5 12 6 ESE 1018,7 42 0 0,0
15.08.2019 01:00:00 12,6 10,0 9,9 21,4 19,8 6 4 13 7 E 1018,7 41 0 0,0
15.08.2019 00:00:00 12,9 9,7 9,7 21,5 19,8 10 5 12 7 E 1018,7 43 0 0,0
14.08.2019 23:00:00 14,1 9,9 10,2 21,5 19,8 8 4 10 6 E 1018,5 40 0 0,0
14.08.2019 22:00:00 15,3 10,3 11,8 21,4 19,8 8 4 13 7 E 1018,2 53 0 0,0
14.08.2019 21:00:00 18,8 9,6 13,5 21,3 19,8 6 4 12 7 NE 1017,1 49 25 0,0
14.08.2019 20:00:00 22,1 8,6 22,5 21,1 19,8 11 6 24 13 NNW 1016,5 38 60 0,0
14.08.2019 19:00:00 23,2 8,5 26,0 20,9 19,8 14 7 27 15 NNW 1016,2 36 60 0,0
14.08.2019 18:00:00 23,7 8,9 27,8 20,7 19,8 19 10 29 16 NW 1016,0 38 60 0,0
14.08.2019 17:00:00 24,0 9,2 28,7 20,5 19,8 13 7 35 19 NNW 1016,2 45 60 0,0
14.08.2019 16:00:00 23,4 8,3 29,4 20,2 19,8 14 8 30 16 N 1016,5 52 60 0,0
14.08.2019 15:00:00 23,0 7,9 28,5 20,0 19,8 13 7 30 16 N 1017,1 37 60 0,0
14.08.2019 14:00:00 22,0 8,1 26,8 19,9 19,8 11 6 34 18 N 1017,7 41 60 0,0
14.08.2019 13:00:00 21,1 8,7 25,2 19,8 19,8 16 9 29 16 NNE 1018,3 51 60 0,0

tt = Température de l'air
td = dewpoint
tt 5cm = Température de l'air 5cm
tt -20cm = Température de l'air -20cm
tt -100cm = Température de l'air -100cm
ff = Vitesse du vent
fx = gusts
dd = Direction du vent
ppp = reduced air pressure
vv = visibility
sd = Ensoleillement
rr = Quantités de précipitations

stations d'obs. à proximité